Hourly Data Report for November 19, 2019

All times are specified in Local Standard Time (LST). Add 1 hour to adjust for Daylight Saving Time where and when it is observed.

SATURNA ISLAND CS
BRITISH COLUMBIA
Current Station Operator: ECCC - MSC

48°47'02.067" N
123°02'41.082" W
24.40 m
1017101
71473
WEZ

Download Data

Hourly Data (November 2019)
Hourly Data Report for November 19, 2019
TIME Temp Definition
°C
Dew Point Definition
°C
Rel Hum Definition
%
Wind Dir Definition
10's deg

Wind Spd Definition
km/h
Visibility Definition
km
Stn Press Definition
kPa
Hmdx Definition


Wind Chill Definition


Weather Definition


00:00 8.7 8.4 98 33 11   100.18     LegendNANA
01:00 8.8 8.5 98 32 8   100.22     LegendNANA
02:00 8.5 8.2 98 31 10   100.25     LegendNANA
03:00 8.3 7.9 98 28 6   100.28     LegendNANA
04:00 8.3 7.8 97 29 2   100.29     LegendNANA
05:00 8.5 7.8 95 29 6   100.32     LegendNANA
06:00 8.5 7.3 92 28 7   100.33     LegendNANA
07:00 8.5 6.9 90 28 10   100.39     LegendNANA
08:00 8.5 6.6 88 29 8   100.50     LegendNANA
09:00 8.7 6.4 86 30 8   100.57     LegendNANA
10:00 9.0 6.6 84 29 7   100.72     LegendNANA
11:00 9.3 6.5 83 30 11   100.78     LegendNANA
12:00 9.4 6.4 82 28 9   100.83     LegendNANA
13:00 10.3 6.0 75 31 10   100.92     LegendNANA
14:00 9.5 6.5 82 30 8   100.98     LegendNANA
15:00 9.5 6.6 82 28 7   101.03     LegendNANA
16:00 9.6 6.4 81 30 8   101.16     LegendNANA
17:00 9.5 6.5 82 30 7   101.24     LegendNANA
18:00 9.5 7.0 84 31 7   101.34     LegendNANA
19:00 9.2 6.9 85 30 5   101.41     LegendNANA
20:00 9.3 7.0 86 29 5   101.51     LegendNANA
21:00 9.0 6.8 86 31 5   101.62     LegendNANA
22:00 8.8 6.7 87 30 5   101.71     LegendNANA
23:00 8.5 7.1 91 33 6   101.78     LegendNANA

Notes on Data Quality.

Legend

  • E = Estimated
  • M = Missing
  • NA = Not Available
Date modified: